Weather History for GMFM - October, 2011

Change the Weather History Date:

Tuesday, October 18, 2011

  Actual Average Record
Temperature  
Mean Temperature 68 °F -  
Max Temperature 83 °F - - ()
Min Temperature 53 °F - - ()
Cooling Degree Days 3    
Growing Degree Days 18 (Base 50)    
Moisture  
Dew Point 39 °F    
Average Humidity 33    
Maximum Humidity 51    
Minimum Humidity 11    
Precipitation  
Precipitation 0.00 in - - ()
Sea Level Pressure  
Sea Level Pressure 30.06 in    
Wind  
Wind Speed 4 mph ()    
Max Wind Speed 9 mph    
Max Gust Speed -    
Visibility 6.1 miles    
Events      
T = Trace of Precipitation, MM = Missing Value Source: Averaged Metar Reports

Daily Weather History Graph

Daily Weather History Graph

Search for Another Location

Airport or City:

Trip Planner

Search our weather history database for the weather conditions in past years. The results will help you decide how hot, cold, wet, or windy it might be!

Date:

Astronomy

Oct. 18, 2011 Rise Set
Actual Time 6:29 AM WET 5:45 PM WET
Civil Twilight 6:03 AM WET 6:10 PM WET
Nautical Twilight 5:34 AM WET 6:39 PM WET
Astronomical Twilight 5:05 AM WET 7:08 PM WET
Moon 10:21 PM WET (10/18) 11:59 AM WET (10/18)
Length of Visible Light 12h 06m
Length of Day
11h 15m
Waning Gibbous, 66% of the Moon is Illuminated
Oct 18
Waning Gibbous
Oct 20
Last Quarter
Oct 26
New
Nov 2
First Quarter
Nov 10
Full

Hourly Weather History & Observations

Time (WET) Temp. Dew Point Humidity Pressure Visibility Wind Dir Wind Speed Gust Speed Precip Events Conditions
12:00 AM 59 °F 36 °F 31% 30.06 in 6 mi East 2.3 mph - -  
12:00 AM 59.0 °F 37.4 °F 45% 30.09 in - East 2.3 mph - N/A   Clear
1:00 AM 59.0 °F 37.4 °F 45% 30.09 in - East 6.9 mph - N/A   Clear
2:00 AM 59.0 °F 37.4 °F 45% 30.09 in - East 6.9 mph - N/A   Clear
3:00 AM 61 °F 39 °F 33% 30.04 in 6 mi SE 4.6 mph - -  
3:00 AM 60.8 °F 39.2 °F 45% 30.06 in - SE 4.6 mph - N/A   Clear
4:00 AM 59.0 °F 37.4 °F 45% 30.06 in - ESE 4.6 mph - N/A   Clear
5:00 AM 57.2 °F 35.6 °F 44% 30.06 in - ESE 4.6 mph - N/A   Clear
6:00 AM 54 °F 36 °F 39% 30.07 in 6 mi ESE 4.6 mph - -  
6:00 AM 55.4 °F 35.6 °F 47% 30.06 in - ESE 4.6 mph - N/A   Clear
7:00 AM 55.4 °F 37.4 °F 51% 30.09 in - ESE 2.3 mph - N/A   Clear
8:00 AM 64.4 °F 39.2 °F 40% 30.09 in - Calm Calm - N/A   Clear
9:00 AM 71 °F 42 °F 23% 30.04 in 6 mi NE 2.3 mph - -   Scattered Clouds
9:00 AM 69.8 °F 41.0 °F 35% 30.09 in 6.2 mi NE 2.3 mph - N/A   Partly Cloudy
10:00 AM 73.4 °F 42.8 °F 33% 30.09 in - Calm Calm - N/A   Clear
11:00 AM 77.0 °F 44.6 °F 32% 30.09 in - North 2.3 mph - N/A   Clear
12:00 PM 80 °F 40 °F 15% 29.99 in 6 mi North 4.6 mph - -   Scattered Clouds
12:00 PM 80.6 °F 41.0 °F 24% 30.09 in - North 4.6 mph - N/A   Clear
1:00 PM 82.4 °F 41.0 °F 23% 30.06 in 6.2 mi North 4.6 mph - N/A   Scattered Clouds
2:00 PM 82.4 °F 41.0 °F 23% 30.04 in 6.2 mi NNW 5.8 mph - N/A   Scattered Clouds
3:00 PM 83 °F 38 °F 11% 29.93 in 6 mi NW 9.2 mph - -   Scattered Clouds
3:00 PM 82.4 °F 37.4 °F 20% 30.04 in 6.2 mi NW 9.2 mph - N/A   Scattered Clouds
4:00 PM 82.4 °F 37.4 °F 20% 30.04 in 6.2 mi NW 8.1 mph - N/A   Scattered Clouds
5:00 PM 78.8 °F 39.2 °F 24% 30.04 in 6.2 mi NW 8.1 mph - N/A   Scattered Clouds
6:00 PM 75 °F 38 °F 16% 29.99 in 6 mi NW 4.6 mph - -   Scattered Clouds
6:00 PM 75.2 °F 37.4 °F 25% 30.06 in 6.2 mi NW 4.6 mph - N/A   Scattered Clouds
7:00 PM 73.4 °F 39.2 °F 29% 30.06 in 6.2 mi NW 2.3 mph - N/A   Scattered Clouds
8:00 PM 69.8 °F 42.8 °F 38% 30.09 in - West 4.6 mph - N/A   Clear
9:00 PM 68 °F 47 °F 35% 30.06 in 6 mi West 3.5 mph - -   Scattered Clouds
9:00 PM 68.0 °F 46.4 °F 46% 30.12 in - West 3.5 mph - N/A   Clear
10:00 PM 64.4 °F 41.0 °F 42% 30.12 in - South 3.5 mph - N/A   Clear
11:00 PM 64.4 °F 37.4 °F 37% 30.12 in - SSE 3.5 mph - N/A   Clear